Flag for Australia Weather past 2 weeks in Mount Isa, Queensland, Australia

Now
95 °F

Sunny.


Feels Like: 101 °F
Forecast: 79 / 99 °F
Wind: 10 mph from Northwest

Location: Mount Isa Amo

Current Time: Mar 1, 2015 at 2:50:58 PM

Latest Report: Mar 1, 2015 at 2:00 PM


Visibility: 10 mi

Pressure: 29.74 "Hg

Humidity: 44%

Dew point: 70 °F

Location of Mount IsaLocation

Historic Weather in Mount Isa — Graph

°F

Mount Isa temperature yesterday

Maximum temperature yesterday: 100 °F (at 4:00 PM)
Minimum temperature yesterday: 75 °F (at 3:00 AM)
Average temperature yesterday: 88 °F

Past Weeks' High & Low Weather Summary

 TemperatureHumidityPressure
High106 °F (Feb 23, 5:00 PM)100% (Feb 27, 6:30 AM)29.92 "Hg (Feb 27, 6:30 AM)
Low70 °F (Feb 20, 4:30 AM)13% (Feb 16, 4:00 PM)29.62 "Hg (Feb 26, 5:00 PM)
Average89 °F47%29.77 "Hg
* Reported Feb 14 2:00 PM — Mar 1 2:00 PM, Mount Isa, Weather by CustomWeather, © 2015

Note: Actual official high and low records may vary slightly from our data, if they occured in-between our weather recording intervals... More about our weather records

Advertising

Mount Isa weather history for previous 24 hours

 ConditionsComfort  
Time TempWeatherWind HumidityBarometerVisibility
2:00 PM
Sun, Mar 1
95 °FSunny.10 mph44%29.74 "Hg10 mi
1:00 PM93 °FScattered clouds.10 mph49%29.77 "HgN/A
12:30 PM91 °FScattered clouds.10 mph49%29.77 "HgN/A
12:00 PM91 °FScattered clouds.10 mph49%29.80 "HgN/A
11:30 AM90 °FBroken clouds.13 mph55%29.80 "HgN/A
11:00 AM90 °FScattered clouds.12 mph55%29.80 "HgN/A
10:30 AM91 °FMostly cloudy.14 mph52%29.80 "HgN/A
10:00 AM90 °FSunny.13 mph55%29.80 "Hg10 mi
9:30 AM90 °FSunny.10 mph55%29.80 "HgN/A
9:00 AM88 °FSunny.12 mph59%29.77 "HgN/A
8:30 AM86 °FSunny.12 mph66%29.77 "HgN/A
8:00 AM84 °FSunny.12 mph70%29.77 "Hg10 mi
7:00 AM82 °FSunny.7 mph74%29.74 "Hg10 mi
6:30 AM82 °FSunny.8 mph74%29.74 "HgN/A
6:00 AM84 °FScattered clouds.8 mph74%29.71 "HgN/A
5:00 AM84 °FOvercast.5 mph74%29.71 "HgN/A
4:30 AM82 °FOvercast.5 mph79%29.68 "HgN/A
4:00 AM84 °FPassing clouds.7 mph74%29.68 "HgN/A
3:00 AM84 °FPassing clouds.7 mph70%29.68 "HgN/A
2:30 AM84 °FPassing clouds.No wind70%29.68 "HgN/A
2:00 AM86 °FPassing clouds.7 mph62%29.68 "HgN/A
1:30 AM86 °FPassing clouds.7 mph59%29.68 "HgN/A
1:00 AM86 °FClear.8 mph62%29.68 "HgN/A
12:30 AM86 °FPassing clouds.7 mph70%29.71 "HgN/A
12:00 AM86 °FPassing clouds.5 mph70%29.71 "HgN/A
11:00 PM
Sat, Feb 28
86 °FPassing clouds.No wind70%29.71 "HgN/A
10:30 PM86 °FClear.5 mph70%29.71 "HgN/A
10:00 PM88 °FClear.No wind62%29.71 "HgN/A
9:30 PM88 °FPassing clouds.5 mph62%29.71 "HgN/A
9:00 PM90 °FPassing clouds.3 mph59%29.71 "HgN/A
8:30 PM90 °FPassing clouds.2 mph55%29.68 "HgN/A
8:00 PM91 °FPassing clouds.6 mph49%29.68 "HgN/A
7:30 PM93 °FClear.8 mph44%29.68 "HgN/A
7:00 PM93 °FClear.6 mph49%29.65 "HgN/A
6:30 PM95 °FClear.6 mph41%29.65 "HgN/A
6:00 PM97 °FSunny.8 mph37%29.65 "HgN/A
5:30 PM99 °FSunny.10 mph35%29.65 "HgN/A
5:00 PM100 °FSunny.10 mph31%29.62 "HgN/A
4:30 PM99 °FSunny.12 mph35%29.65 "HgN/A
4:00 PM100 °FSunny.10 mph33%29.65 "HgN/A
3:30 PM99 °FSunny.12 mph37%29.68 "HgN/A
3:00 PM99 °FSunny.12 mph37%29.68 "HgN/A
2:30 PM99 °FSunny.14 mph39%29.68 "HgN/A
2:00 PM99 °FScattered clouds.15 mph39%29.71 "HgN/A
Weather by CustomWeather, © 2015

See weather overviewHow to use our weather pages